Year,Month,Day,Hour,Minute,Value (Times are PST for temperature in C)
2013,01,31,11,03,8.40
2013,01,31,11,04,8.40
2013,01,31,11,05,8.40
2013,01,31,11,06,8.40
2013,01,31,11,07,8.40
2013,01,31,11,08,8.40
2013,01,31,11,09,8.40
2013,01,31,11,10,8.40
2013,01,31,11,11,8.40
2013,01,31,11,12,8.40
2013,01,31,11,13,8.40
2013,01,31,11,14,8.40
2013,01,31,11,15,8.30
2013,01,31,11,16,8.30
2013,01,31,11,17,8.20
2013,01,31,11,18,8.20
2013,01,31,11,19,8.20
2013,01,31,11,20,8.20
2013,01,31,11,21,8.20
2013,01,31,11,22,8.20
2013,01,31,11,23,8.20
2013,01,31,11,24,8.20
2013,01,31,11,25,8.30
2013,01,31,11,26,8.30
2013,01,31,11,27,8.30
2013,01,31,11,28,8.30
2013,01,31,11,29,8.30
2013,01,31,11,30,8.40
2013,01,31,11,31,8.40
2013,01,31,11,32,8.40
2013,01,31,11,33,8.40
2013,01,31,11,34,8.40
2013,01,31,11,35,8.40
2013,01,31,11,36,8.50
2013,01,31,11,37,8.50
2013,01,31,11,38,8.70
2013,01,31,11,39,8.60
2013,01,31,11,40,8.50
2013,01,31,11,41,8.40
2013,01,31,11,42,8.40
2013,01,31,11,43,8.30
2013,01,31,11,44,8.30
2013,01,31,11,45,8.30
2013,01,31,11,46,8.30
2013,01,31,11,47,8.40
2013,01,31,11,48,8.40
2013,01,31,11,49,8.40
2013,01,31,11,50,8.30
2013,01,31,11,51,8.30
2013,01,31,11,52,8.30
2013,01,31,11,53,8.30
2013,01,31,11,54,8.20
2013,01,31,11,55,8.30
2013,01,31,11,56,8.30
2013,01,31,11,57,8.30
2013,01,31,11,58,8.30
2013,01,31,11,59,8.20
2013,01,31,12,00,8.20
2013,01,31,12,01,8.20
2013,01,31,12,02,8.20
2013,01,31,12,03,8.30
2013,01,31,12,04,8.30
2013,01,31,12,05,8.30
2013,01,31,12,06,8.40
2013,01,31,12,07,8.40
2013,01,31,12,08,8.50
2013,01,31,12,09,8.50
2013,01,31,12,10,8.50
2013,01,31,12,11,8.50
2013,01,31,12,12,8.50
2013,01,31,12,13,8.60
2013,01,31,12,14,8.60
2013,01,31,12,15,8.60
2013,01,31,12,16,8.60
2013,01,31,12,17,8.70
2013,01,31,12,18,8.70
2013,01,31,12,19,8.60
2013,01,31,12,20,8.60
2013,01,31,12,21,8.60
2013,01,31,12,22,8.60
2013,01,31,12,23,8.70
2013,01,31,12,24,8.70
2013,01,31,12,25,8.80
2013,01,31,12,26,8.70
2013,01,31,12,27,8.70
2013,01,31,12,28,8.70
2013,01,31,12,29,8.70
2013,01,31,12,30,8.70
2013,01,31,12,31,8.70
2013,01,31,12,32,8.70
2013,01,31,12,33,8.70
2013,01,31,12,34,8.70
2013,01,31,12,35,8.70
2013,01,31,12,36,8.70
2013,01,31,12,37,8.70
2013,01,31,12,38,8.70
2013,01,31,12,39,8.70
2013,01,31,12,40,8.70
2013,01,31,12,41,8.70
2013,01,31,12,42,8.70
2013,01,31,12,43,8.70
2013,01,31,12,44,8.70
2013,01,31,12,45,8.70
2013,01,31,12,46,8.80
2013,01,31,12,47,8.80
2013,01,31,12,48,8.80
2013,01,31,12,49,8.80
2013,01,31,12,50,8.80
2013,01,31,12,51,8.80
2013,01,31,12,52,8.80
2013,01,31,12,53,8.70
2013,01,31,12,54,8.70
2013,01,31,12,55,8.70
2013,01,31,12,56,8.70
2013,01,31,12,57,8.70
2013,01,31,12,58,8.70
2013,01,31,12,59,8.80
2013,01,31,13,00,8.80
2013,01,31,13,01,8.80
2013,01,31,13,02,8.80
2013,01,31,13,03,8.80
2013,01,31,13,04,8.70
2013,01,31,13,05,8.80
2013,01,31,13,06,8.80
2013,01,31,13,07,8.80
2013,01,31,13,08,8.80
2013,01,31,13,09,8.80
2013,01,31,13,10,8.80
2013,01,31,13,11,8.90
2013,01,31,13,12,8.90
2013,01,31,13,13,8.90
2013,01,31,13,14,8.90
2013,01,31,13,15,8.90
2013,01,31,13,16,8.90
2013,01,31,13,17,8.90
2013,01,31,13,18,8.90
2013,01,31,13,19,8.90
2013,01,31,13,20,8.90
2013,01,31,13,21,8.90
2013,01,31,13,22,8.90
2013,01,31,13,23,9.00
2013,01,31,13,24,9.00
2013,01,31,13,25,9.00
2013,01,31,13,26,9.00
2013,01,31,13,27,9.00
2013,01,31,13,28,9.00
2013,01,31,13,29,9.00
2013,01,31,13,30,9.00
2013,01,31,13,31,9.00
2013,01,31,13,32,8.90
2013,01,31,13,33,8.80
2013,01,31,13,34,8.80
2013,01,31,13,35,8.80
2013,01,31,13,36,8.70
2013,01,31,13,37,8.70
2013,01,31,13,38,8.70
2013,01,31,13,39,8.70
2013,01,31,13,40,8.60
2013,01,31,13,41,8.60
2013,01,31,13,42,8.60
2013,01,31,13,43,8.60
2013,01,31,13,44,8.60
2013,01,31,13,45,8.60
2013,01,31,13,46,8.60
2013,01,31,13,47,8.60
2013,01,31,13,48,8.60
2013,01,31,13,49,8.60
2013,01,31,13,50,8.60
2013,01,31,13,51,8.60
2013,01,31,13,52,8.70
2013,01,31,13,53,8.70
2013,01,31,13,54,8.60
2013,01,31,13,55,8.60
2013,01,31,13,56,8.60
2013,01,31,13,57,8.60
2013,01,31,13,58,8.60
2013,01,31,13,59,8.60
2013,01,31,14,00,8.60
2013,01,31,14,01,8.50
2013,01,31,14,02,8.50
2013,01,31,14,03,8.50
2013,01,31,14,04,8.50
2013,01,31,14,05,8.50
2013,01,31,14,06,8.60
2013,01,31,14,07,8.60
2013,01,31,14,08,8.60
2013,01,31,14,09,8.60
2013,01,31,14,10,8.70
2013,01,31,14,11,8.70
2013,01,31,14,12,8.70
2013,01,31,14,13,8.70
2013,01,31,14,14,8.70
2013,01,31,14,15,8.70
2013,01,31,14,16,8.70
2013,01,31,14,17,8.70
2013,01,31,14,18,8.70
2013,01,31,14,19,8.70
2013,01,31,14,20,8.70
2013,01,31,14,21,8.70
2013,01,31,14,22,8.70
2013,01,31,14,23,8.70
2013,01,31,14,24,8.60
2013,01,31,14,25,8.70
2013,01,31,14,26,8.70
2013,01,31,14,27,8.70
2013,01,31,14,28,8.70
2013,01,31,14,29,8.70
2013,01,31,14,30,8.70
2013,01,31,14,31,8.70
2013,01,31,14,32,8.70
2013,01,31,14,33,8.70
2013,01,31,14,34,8.70
2013,01,31,14,35,8.60
2013,01,31,14,36,8.60
2013,01,31,14,37,8.60
2013,01,31,14,38,8.60
2013,01,31,14,39,8.60
2013,01,31,14,40,8.60
2013,01,31,14,41,8.50
2013,01,31,14,42,8.50
2013,01,31,14,43,8.50
2013,01,31,14,44,8.60
2013,01,31,14,45,8.60
2013,01,31,14,46,8.70
2013,01,31,14,47,8.70
2013,01,31,14,48,8.70
2013,01,31,14,49,8.70
2013,01,31,14,50,8.70
2013,01,31,14,51,8.70
2013,01,31,14,52,8.70
2013,01,31,14,53,8.80
2013,01,31,14,54,8.80
2013,01,31,14,55,8.90
2013,01,31,14,56,8.90
2013,01,31,14,57,8.90
2013,01,31,14,58,8.90
2013,01,31,14,59,8.90
2013,01,31,15,00,8.90
2013,01,31,15,01,9.00
2013,01,31,15,02,9.10
2013,01,31,15,03,9.10
2013,01,31,15,04,9.20
2013,01,31,15,05,9.20
2013,01,31,15,06,9.20
2013,01,31,15,07,9.20
2013,01,31,15,08,9.20
2013,01,31,15,09,9.20
2013,01,31,15,10,9.20
2013,01,31,15,11,9.20
2013,01,31,15,12,9.20
2013,01,31,15,13,9.20
2013,01,31,15,14,9.20
2013,01,31,15,15,9.20
2013,01,31,15,16,9.20
2013,01,31,15,17,9.20
2013,01,31,15,18,9.20
2013,01,31,15,19,9.20
2013,01,31,15,20,9.20
2013,01,31,15,21,9.20
2013,01,31,15,22,9.20
2013,01,31,15,23,9.20
2013,01,31,15,24,9.20
2013,01,31,15,25,9.10
2013,01,31,15,26,9.10
2013,01,31,15,27,9.10
2013,01,31,15,28,9.10
2013,01,31,15,29,9.00
2013,01,31,15,30,9.00
2013,01,31,15,31,8.90
2013,01,31,15,32,8.90
2013,01,31,15,33,8.90
2013,01,31,15,34,8.90
2013,01,31,15,35,8.80
2013,01,31,15,36,8.80
2013,01,31,15,37,8.80
2013,01,31,15,38,8.70
2013,01,31,15,39,8.70
2013,01,31,15,40,8.70
2013,01,31,15,41,8.70
2013,01,31,15,42,8.70
2013,01,31,15,43,8.70
2013,01,31,15,44,8.70
2013,01,31,15,45,8.70
2013,01,31,15,46,8.70
2013,01,31,15,47,8.70
2013,01,31,15,48,8.70
2013,01,31,15,49,8.60
2013,01,31,15,50,8.60
2013,01,31,15,51,8.60
2013,01,31,15,52,8.60
2013,01,31,15,53,8.60
2013,01,31,15,54,8.50
2013,01,31,15,55,8.50
2013,01,31,15,56,8.50
2013,01,31,15,57,8.50
2013,01,31,15,58,8.50
2013,01,31,15,59,8.40
2013,01,31,16,00,8.40
2013,01,31,16,01,8.40
2013,01,31,16,02,8.40
2013,01,31,16,03,8.40
2013,01,31,16,04,8.40
2013,01,31,16,05,8.40
2013,01,31,16,06,8.40
2013,01,31,16,07,8.40
2013,01,31,16,08,8.40
2013,01,31,16,09,8.40
